Weather in Solontsy

Russia / Krasnoyarsk Krai     56°04′07″N   92°50′54″E
В апреле 2022 года жителям России запретили посещать сайт meteo.paraplan.net по решению Генеральной прокуратуры. Аудитория сайта уменьшилась в 10 раз. Владельцы сайта не видят смысла в поддержке погодного сервера в таких условиях. Сайт будет закрыт в октябре.
temp.,
°C
wind,
m/s
gust,
m/s
humid.,
%
clouds,
%
prec.,
mm/h
press.,
hPa
HPBL,
m
4 october, tue
tue401:00−2ssw11835 0.0 103710
04:00−3s00835 0.0 103610
07:00−3ese00855 0.0 103610
10:00+2ese11615 0.0 1035355
13:00+6nne11475 0.0 1034881
16:00+6nne11455 0.0 1032876
19:00+1ese11665 0.0 103310
22:00−1ssw11755 0.0 103311
5 october, wed
wed501:00−1ssw227574 0.0 103220
04:00−2ssw2277100 0.0 103028
07:00−1ssw2381100 0.0 102952
10:00+3sw3958100 0.0 1028489
13:00+5sw51154100 0.0 10251326
16:00+3sw61387100 0.1 10241024
19:00+1wsw51197100 1.5 1023927
22:00+1wnw51096100 0.7 1025942
6 october, thu
thu601:000w398799 0.8 1026529
04:00−2wsw3895100 0.1 1027246
07:00−1wsw2996100 0.4 1027498
10:00+1w3693100 0.5 1027536
13:00+2wnw3581100 1.2 1027762
16:00+3wnw467495 0.9 1028969
19:000nw229382 1.1 103128
22:00−2wsw2395100 0.1 103261
7 october, fri
fri701:00−2wsw2296100 0.1 103343
04:00−2wsw219699 0.1 103432
07:00−3sw1198100 0.2 103516
10:00+1wsw128187 0.1 1035596
13:00+2wsw2370100 0.3 1034871
16:00+3sw126798 0.1 1034873
19:00+1s1281100 0.1 103429
22:00+1sse1184100 0.0 103328
8 october, sat
sat801:00−1s1188100 0.0 103222
04:00−1s228993 0.0 103128
07:00−2s2289100 0.0 103043
10:00+3s2272100 0.0 1029243
13:00+7s246483 0.0 1026572
16:00+7s2569100 0.0 1024565
19:00+2s2290100 0.0 102321
22:00+2s2291100 0.0 102129